Find Local Weather

World > North America > United States > Florida

San Mateo, Florida Regional Weather

Lat: 29.61N, Lon: 81.58W
Wx Zone: FLZ037
Feedback
Expires:201811150100;;314522
ASUS42 KTBW 150016
RWRFL 
FLORIDA REGIONAL WEATHER ROUNDUP
NATIONAL WEATHER SERVICE TAMPA BAY RUSKIN FL
700 PM EST WED NOV 14 2018

NOTE: "FAIR" INDICATES FEW OR NO CLOUDS BELOW 12,000 FEET WITH NO
SIGNIFICANT WEATHER AND/OR OBSTRUCTIONS TO VISIBILITY.


FLZ011-016>038-118-127-128-134-139-239-150100-
NORTH FLORIDA
  
CITY           SKY/WX    TMP DP  RH WIND       PRES   REMARKS
MARIANNA       LGT RAIN  58  53  84 N10       30.15S                  
TALLAHASSEE    LGT RAIN  59  59 100 N7        30.11R FOG              
PERRY          RAIN      61  60  97 NE8       30.06F                  
LIVE OAK       CLOUDY    59  61 100 NE8G15    30.07S FOG              
CROSS CITY     CLOUDY    66  64  94 NE9G18    30.03S                  
LAKE CITY      CLOUDY    59  59 100 NE8       30.07S FOG              
GAINESVILLE    CLOUDY    66  64  93 NE9       30.07S FOG              
WILLISTON        N/A    N/A N/A N/A MISG        N/A                   
JACKSONVILLE   DRIZZLE   67  66  97 NE13G22   30.06F FOG              
JAX NAS        CLOUDY    70  68  93 NE16      30.05F FOG              
JAX CECIL      FOG       66  66 100 NE13      30.06F VSB 1            
FERNANDINA BEA CLOUDY    69  66  90 NE18G28   30.07S                  
ST AUGUSTINE   LGT RAIN  73  71  93 MISG      30.04S FOG              
PALM COAST     MOCLDY    73  72  94 NE8       30.02S                  

STATION/POSITION SKY/WX   TEMP    WIND        PRES    WAVE   SWELL
                          AIR SEA DIR/SP/G            HT/PER HT/PER
                          (F)     (DEG/KT/KT) (MB)    (FT/S) (FT/S)
SHELL POINT      NOT AVBL
KEATON BEACH               62      30/  6/ 11 1017.1F
CEDAR KEY                  72      50/ 14/ 16 1016.0S
FERNANDINA                    71   30/  8/ 14 1019.2F
30.7N   81.3W                 72                N/A     8/ 7
MAYPORT                    71 72   40/ 18/ 26 1017.9F
31.4N   80.9W              67 71   50/ 23/ 25 1018.5R   9/ 8   2/14
ST AUGUSTINE               74 74   40/ 19/ 22 1016.6F

$$

SKY/WX - Weather  TMP - Temperature  DP - Dew Point  RH - Relative Humidity
WIND - Wind Direction/Speed PRES - Barometric Pressure